Regional Weather Roundup
Issued by NWS

Home | Current Version | Previous Version | Text Only | Print | Product List | Glossary On
Versions: 1 2 3 4 5 6 7 8 9 10 11 12 13 14 15 16 17 18 19 20 21 22 23 24 25 26 27 28 29 30 31 32 33 34 35 36 37 38 39 40 41 42 43 44 45 46 47 48 49 50
000
ASUS45 KPSR 231110
RWRAZ

ARIZONA HOURLY REGIONAL WEATHER ROUNDUP
NATIONAL WEATHER SERVICE PHOENIX AZ
400 AM MST TUE MAY 23 2017

NOTE: FAIR INDICATES FEW OR NO CLOUDS BELOW 12,000 FEET WITH NO
SIGNIFICANT WEATHER AND/OR OBSTRUCTIONS TO VISIBILITY.

AZZ001>003-036-231200-
NORTHWEST ARIZONA

CITY           SKY/WX    TMP DP  RH WIND       PRES   REMARKS
BULLHEAD CITY  CLEAR     75  34  22 CALM      29.85R
KINGMAN        CLEAR     56  25  30 S5        30.04R
$$

AZZ004>008-015-016-018-231200-
NORTH CENTRAL ARIZONA

CITY           SKY/WX    TMP DP  RH WIND       PRES   REMARKS
GRAND CANYON   CLEAR     32  25  75 NE6       30.26R WCI  26
WILLIAMS       PTCLDY    36  27  69 SE7       30.24R WCI  30
PRESCOTT       CLEAR     54  27  35 S5        30.14S
FLAGSTAFF      CLEAR     38  24  57 VRB3      30.25R
PAYSON         CLEAR     63  21  20 CALM      30.15S
PAGE           CLEAR     60  34  37 CALM      30.14R
$$

AZZ009>014-017-231200-
NORTHEAST ARIZONA

CITY           SKY/WX    TMP DP  RH WIND       PRES   REMARKS
WINSLOW        CLEAR     42  23  46 CALM      30.15R
SAINT JOHNS    CLEAR     49  21  33 S5        30.16R
WINDOW ROCK    CLEAR     38  25  59 CALM      30.22R
SHOW LOW       CLEAR     41  18  38 CALM      30.21S
$$

AZZ540-542>544-546-548-231200-
GREATER PHOENIX AREA

CITY           SKY/WX    TMP DP  RH WIND       PRES   REMARKS
PHOENIX        PTCLDY    81  32  17 CALM      29.82R
BUCKEYE        CLEAR     73  27  17 E5        29.84R
LUKE AFB       CLEAR     77  34  21 CALM      29.83R
DEER VALLEY    CLEAR     76  28  17 N3        29.85R
SCOTTSDALE     CLEAR     74  36  25 NE5       29.86R
MESA-GATEWAY   CLEAR     70  27  19 E6        29.86R
$$

AZZ539-553-231200-
SOUTHWEST MARICOPA COUNTY AND PINAL COUNTY

CITY           SKY/WX    TMP DP  RH WIND       PRES   REMARKS
CASA GRANDE    CLEAR     80  30  16 SW6       29.86
GILA BEND      FAIR      78  23  13 E8        29.82R
$$

AZZ503-504-507>509-231200-
SOUTHEAST ARIZONA

CITY           SKY/WX    TMP DP  RH WIND       PRES   REMARKS
TUCSON         CLEAR     69  24  18 SE8       29.96S
DAVIS-MONTHAN  CLEAR     67  24  19 SE8       29.95S
NOGALES        CLEAR     60  24  25 E5        30.04R
SIERRA VISTA   CLEAR     67  19  16 CALM      30.10R
DOUGLAS        CLEAR     55  16  21 CALM      30.05R
SAFFORD        CLEAR     62  22  21 SE3       29.96R
$$

AZZ532-231200-
SOUTHWEST ARIZONA

CITY           SKY/WX    TMP DP  RH WIND       PRES   REMARKS
YUMA           CLEAR     77  44  30 CALM      29.79S
$$

CAZ041-043-047-048-061-525>527-560>570-231200-
SOUTHERN CALIFORNIA

CITY           SKY/WX    TMP DP  RH WIND       PRES   REMARKS
DOWNTOWN L.A.  CLEAR     60  56  86 CALM      29.93F
L.A. AIRPORT   PTCLDY    59  56  89 CALM      29.94S
SAN DIEGO      CLOUDY    63  59  87 N6        29.95F
BURBANK        CLEAR     61  54  77 CALM      29.94S
ONTARIO        MOCLDY    63  56  78 CALM      29.94S
RIVERSIDE      CLEAR     64  56  75 CALM      29.94S
PALM SPRINGS   CLEAR     81  52  36 CALM      29.83S
EL CENTRO NAS  PTCLDY    75  31  19 W9        29.79
IMPERIAL       PTCLDY    77  42  28 W6        29.77S
BLYTHE         CLEAR     75  36  24 N7        29.81R
NEEDLES        CLEAR     77  28  16 S5        29.86R
$$

NVZ020-UTZ003-231200-
SOUTHERN NEVADA-UTAH

CITY           SKY/WX    TMP DP  RH WIND       PRES   REMARKS
LAS VEGAS      CLEAR     76  32  20 SW3       29.96R
SALT LAKE CITY PTCLDY    57  42  57 S9        30.17
$$

NMZ009-TXZ055-231200-
NEW MEXICO-WEST TEXAS

CITY           SKY/WX    TMP DP  RH WIND       PRES   REMARKS
ALBUQUERQUE    CLEAR     56  45  66 E17       30.11S
EL PASO        CLEAR     68  18  14 N9        29.98R
$$


........................KEY........................
SKY/WX - SKY CONDITION/WEATHER
TMP    - TEMPERATURE IN FAHRENHEIT
DP     - DEW POINT IN FAHRENHEIT
RH     - RELATIVE HUMIDITY IN PERCENT
WIND   - DIRECTION AND SPEED IN MILES PER HOUR (MPH)
VRB    - VARIABLE WIND DIRECTION
PRES   - MEAN SEA LEVEL PRESSURE IN INCHES OF MERCURY
         F - FALLING PRESSURE   R - RISING PRESSURE
         S - STEADY PRESSURE
VSB    - VISIBILITY IN MILES
HX     - HEAT INDEX IN FAHRENHEIT
WCI    - WIND CHILL INDEX IN FAHRENHEIT
TC     - TEMPERATURE IN CELSIUS WHICH IS ALSO KNOWN AS
         TEMPERATURE IN CENTIGRADE
AFB    - AIR FORCE BASE
         LUKE AFB IS LUKE AIR FORCE BASE
         DAVIS-MONTHAN IS DAVIS-MONTHAN AIR FORCE BASE
NAS    - NAVAL AIR STATION
         EL CENTRO NAS IS EL CENTRO NAVAL AIR STATION
N/A    - NOT AVAILABLE




USA.gov is the U.S. government's official web portal to all federal, state and local government web resources and services.